カタログに戻る

TELECOM 2A

運用中通信GEO
NORAD 21813·PAYLOAD·🇫🇷 France

打ち上げ Dec 16, 1991 から Guiana Space Centre

Loading…

TLE

最新Source: Space-Track

元期: Sep 12, 2026, 21:00 UTC

1 21813U 91084A   26255.87549244  .00000035  00000-0  00000+0 0  9997
2 21813  14.6513   5.7948 0004830 219.3919 137.7108  0.98948660124957

AllMySatでTELECOM 2Aをリアルタイム追跡

Download on the App Store